Wind_Speed
11 12 13 15 18 20 20 19 17 17 16 15 14 14 13 11 10 9 8 7 6 5 4 2 2 2 2 3 3 3 3 3 2 2 2 3 5 6 7 7 8 11 14 18 20 21 22 22 21 20 20 21 21 22 22 21 20 20 19 20 21 19
11 14 14 16 19 21 20 19 19 19 18 17 17 15 13 12 10 9 8 7 6 5 4 3 3 3 3 4 3 4 4 3 2 2 2 2 4 5 7 8 9 10 12 15 18 20 21 22 22 21 20 20 21 21 22 22 21 21 19 20 21 21
13 15 15 16 18 19 19 19 18 18 17 17 16 15 14 12 11 10 8 7 6 5 4 4 3 3 4 4 4 4 4 4 2 2 2 2 2 4 6 7 9 11 12 14 16 18 21 22 22 21 21 21 21 21 21 21 21 21 21 20 20 21
16 15 16 18 19 16 15 15 15 15 15 15 14 14 13 11 9 9 8 8 7 6 6 5 3 3 3 4 4 4 5 5 4 2 2 1 1 2 3 5 8 10 12 13 13 15 17 19 19 20 21 21 21 20 20 20 21 21 22 21 20 21
17 15 17 19 18 15 13 13 14 13 12 12 12 11 9 9 10 11 10 8 8 7 6 5 4 4 4 3 4 4 5 6 5 3 2 1 0 1 1 1 3 6 9 11 13 13 14 15 16 18 20 20 19 20 19 19 19 19 21 21 21 21
17 18 20 19 16 15 15 14 12 9 8 8 8 7 6 9 12 12 9 7 8 8 7 7 5 4 3 2 3 4 5 7 6 4 3 2 1 2 2 1 1 2 5 8 11 14 14 14 14 16 18 19 19 20 19 19 19 19 19 20 21 22
18 19 17 13 11 14 14 11 9 6 8 8 6 5 7 10 10 7 3 5 6 7 9 9 5 4 3 2 3 3 5 6 7 5 4 3 2 1 1 1 2 2 2 4 7 11 13 12 12 13 14 16 18 19 19 19 19 19 19 19 20 21
20 17 12 9 7 10 10 7 7 7 9 10 7 7 9 9 6 4 4 6 5 8 11 6 5 4 3 3 4 5 6 7 7 6 4 3 2 2 2 2 3 2 2 2 3 5 6 7 8 10 11 14 16 17 18 19 19 19 18 19 19 19
16 11 9 7 5 6 7 5 6 8 9 8 7 8 7 3 4 7 7 7 6 9 13 8 6 6 4 5 6 7 7 7 8 7 6 5 4 3 3 4 4 4 3 2 2 2 2 4 6 8 9 12 14 15 16 18 18 17 17 17 17 18
10 8 8 6 5 6 6 6 6 6 7 6 8 7 1 2 5 8 7 7 8 11 13 11 7 5 6 8 8 9 9 10 10 10 9 7 6 5 5 5 5 4 4 3 3 2 3 4 6 8 9 9 11 12 13 15 16 16 15 16 16 16
10 9 7 6 6 6 6 5 5 5 4 6 9 4 1 4 8 8 7 8 10 12 12 12 9 5 6 8 9 11 11 11 11 11 11 9 8 7 7 6 6 5 4 4 3 2 3 5 6 7 7 7 8 9 9 11 14 14 14 14 14 15
12 10 8 7 6 5 4 5 5 5 5 8 8 1 1 7 9 8 8 9 11 12 12 11 10 9 9 10 11 11 10 9 10 10 10 9 9 9 8 8 7 6 5 4 3 3 3 5 6 7 7 7 7 8 8 9 11 12 13 14 13 15
11 10 9 7 6 5 5 5 4 4 5 8 5 1 4 9 8 7 8 10 11 11 10 10 10 11 11 11 11 12 11 10 10 9 8 8 9 10 10 9 8 7 6 5 4 4 4 5 5 6 7 7 7 8 7 8 10 11 12 13 13 14
11 11 9 8 7 6 6 4 2 3 4 5 3 2 6 9 7 7 9 10 12 11 8 9 11 12 12 10 10 12 12 11 9 8 9 9 10 10 8 7 7 8 7 6 6 5 5 5 5 6 6 6 6 7 7 8 9 10 12 13 14 14
13 11 9 9 7 6 4 3 5 5 2 1 1 2 6 7 7 8 10 10 12 12 8 10 12 10 9 9 10 11 12 11 9 10 9 8 8 8 6 5 6 8 8 7 7 6 5 5 5 5 5 5 6 6 7 8 9 9 11 13 13 14
13 10 9 9 8 7 6 6 8 7 5 5 4 2 3 4 5 8 10 10 12 12 10 11 12 9 9 9 10 12 12 11 10 10 8 7 8 8 6 7 7 8 9 9 7 6 6 5 5 5 5 5 4 5 6 7 8 8 9 10 11 13
13 11 10 10 9 9 8 8 10 10 9 8 7 6 5 4 2 5 9 10 12 13 11 11 11 10 9 9 10 12 13 11 10 10 9 10 10 9 7 7 8 8 9 9 7 6 5 5 4 4 4 4 4 5 6 6 6 7 9 10 11 11
14 14 12 11 10 10 9 9 11 11 11 10 10 9 9 8 6 3 4 8 10 12 13 12 12 11 10 10 10 12 13 12 12 12 12 12 11 9 9 9 8 8 8 6 6 6 5 4 4 5 6 6 6 6 6 6 6 8 10 10 9 7
17 16 15 14 13 11 10 10 11 11 10 10 10 10 10 11 10 9 6 5 7 9 12 13 13 12 11 11 11 12 13 13 13 13 13 12 10 9 9 10 9 8 8 6 6 5 4 4 5 7 8 8 8 8 8 7 8 10 10 8 8 6
18 18 17 17 14 12 11 9 9 9 9 9 10 10 11 12 11 11 10 7 5 6 9 11 12 12 12 11 11 12 12 13 13 14 13 12 11 11 10 10 8 7 8 7 7 6 5 5 7 7 8 8 8 9 9 9 9 9 10 8 7 7
20 20 18 16 14 12 10 8 7 7 7 7 7 8 9 11 11 12 11 10 7 4 5 8 10 11 12 11 12 12 12 13 14 14 14 12 12 11 10 9 8 8 8 8 8 7 7 8 9 9 10 10 9 10 10 11 9 9 9 8 7 7
19 19 18 16 14 11 9 6 5 4 4 4 5 6 7 8 10 11 12 11 10 7 4 5 8 10 12 12 12 12 13 14 14 14 14 12 12 11 11 11 10 10 9 9 9 9 9 10 11 11 11 12 11 11 11 12 11 10 10 8 8 8
18 17 16 15 13 10 8 6 4 2 1 2 3 4 6 7 8 10 11 12 11 9 7 5 5 8 11 13 13 13 13 14 14 14 13 13 12 12 12 13 12 12 11 10 10 10 10 11 11 11 11 12 12 12 13 13 13 12 11 9 9 9
16 17 17 15 12 10 8 5 3 2 0 2 2 4 5 6 7 9 11 12 12 11 9 7 5 5 7 10 13 14 14 14 14 14 14 14 13 13 14 14 15 15 13 12 11 11 11 11 11 11 11 13 14 13 14 15 15 13 11 10 10 10
15 17 17 15 13 10 8 6 4 2 1 2 3 4 5 6 7 8 10 11 12 12 11 9 7 6 6 7 9 12 13 14 14 14 13 13 13 13 13 14 15 15 12 11 12 12 12 12 12 13 13 13 14 14 14 15 13 12 11 10 10 10
16 18 18 16 14 11 9 6 5 3 3 3 4 5 6 7 8 9 10 12 12 12 12 11 9 7 7 6 7 9 11 13 14 15 14 14 13 13 13 14 15 15 12 11 12 12 12 13 14 13 13 14 14 14 14 13 11 10 10 10 10 10
18 19 19 17 15 13 10 8 6 5 5 5 5 6 8 9 9 10 12 13 13 13 12 11 10 8 7 6 6 7 9 11 13 14 15 15 15 15 15 15 16 15 14 14 14 12 13 14 14 13 13 14 14 14 14 12 11 10 9 10 10 10
20 20 20 19 16 14 12 11 8 7 6 6 7 8 9 10 11 12 13 15 15 15 14 12 10 9 7 6 5 6 8 9 10 10 11 12 13 14 14 13 13 12 12 13 12 12 13 14 14 13 12 12 12 13 14 13 12 9 6 9 10 10
22 21 21 21 18 16 15 13 10 8 7 8 9 10 11 12 13 14 14 15 16 17 16 14 11 9 7 6 5 5 6 7 7 7 7 8 9 10 10 9 8 8 9 10 11 11 12 13 13 12 11 10 10 11 12 12 11 8 6 8 9 8
25 23 23 23 21 18 17 14 11 9 8 9 10 11 13 14 14 15 15 16 16 16 15 14 13 10 8 7 6 5 4 4 5 5 6 6 6 7 7 7 7 7 7 8 9 9 10 11 11 11 10 11 10 9 10 10 9 7 7 8 8 7
26 25 24 23 22 20 18 15 12 9 9 11 12 13 15 16 16 16 17 17 16 15 14 13 14 13 9 7 6 5 4 3 3 4 5 5 5 6 6 7 7 7 6 6 6 7 7 8 9 9 9 9 9 8 8 8 8 7 7 7 7 7
29 27 25 23 22 21 19 16 13 11 11 12 14 15 17 18 19 19 19 18 17 16 16 16 17 15 11 7 6 4 3 3 3 4 5 5 6 7 7 7 8 9 9 8 7 7 7 7 7 7 6 6 6 6 6 6 6 6 6 6 6 7
23 22 21 21 20 21 19 16 13 12 13 13 14 17 19 20 21 21 20 20 19 19 20 21 19 16 11 7 5 3 2 3 3 4 5 6 7 7 8 8 8 9 9 10 9 9 9 8 8 8 7 7 6 6 7 7 6 5 5 6 6 6
16 16 17 18 19 19 18 16 15 14 14 14 15 17 19 21 22 22 22 22 23 24 22 19 15 13 9 5 3 3 3 3 4 5 5 6 6 7 7 8 8 8 9 10 10 10 10 9 10 10 9 8 8 8 7 7 7 7 7 6 6 6
13 16 18 16 17 18 17 17 16 15 15 15 16 18 20 20 20 21 22 24 26 24 15 10 8 9 7 3 2 2 3 4 4 5 5 5 5 6 7 8 8 9 10 10 11 11 11 11 11 11 10 9 9 8 8 7 7 7 7 6 5 5
15 16 17 16 16 17 16 16 15 15 15 16 17 19 20 19 18 19 21 23 22 14 6 4 6 6 4 2 3 3 4 4 5 5 6 6 7 8 9 9 10 11 11 11 11 11 11 11 10 10 9 9 9 8 7 7 6 6 6 5 5 4
16 15 15 16 16 16 15 14 14 15 16 17 19 20 20 19 18 18 18 16 11 4 2 4 5 4 2 3 4 5 5 6 6 7 8 9 10 11 11 12 12 13 13 13 13 13 12 12 11 11 10 10 10 9 8 7 7 6 6 5 5 4
Wind_Direction
221 210 203 193 187 185 181 174 175 180 181 184 186 192 189 190 199 199 204 208 205 200 199 201 193 204 211 229 244 246 241 231 224 214 216 221 219 216 210 206 204 204 207 210 211 212 211 210 211 213 215 217 220 223 225 227 228 229 230 234 238 242
206 199 196 194 189 186 186 180 184 187 184 189 189 190 188 188 197 200 206 206 203 206 208 215 208 208 214 229 248 255 258 251 243 233 228 239 239 234 224 215 211 209 207 209 211 213 213 212 211 213 216 218 221 224 226 228 230 230 231 233 235 239
196 192 193 205 206 196 194 193 197 194 188 195 189 185 187 185 194 199 202 200 200 210 214 224 225 223 223 229 245 253 259 255 241 239 248 267 278 258 236 223 216 214 212 211 212 213 215 214 212 212 215 219 221 225 227 229 231 231 233 234 235 236
195 196 200 212 219 208 199 203 207 197 194 202 192 185 184 179 194 198 199 203 206 217 221 228 234 238 237 238 247 252 258 257 245 233 242 259 314 294 245 224 217 216 215 214 214 214 216 215 212 211 213 217 220 223 226 228 230 233 235 236 237 237
199 210 216 216 220 214 206 207 209 202 202 206 192 185 180 184 203 204 200 203 213 222 222 224 228 228 232 244 260 266 266 265 260 246 249 263 358 5 5 225 212 217 217 217 219 217 217 215 210 211 212 215 219 223 225 228 230 232 236 238 238 238
206 220 222 215 209 208 213 213 209 204 199 200 191 188 202 214 215 206 200 209 221 225 215 207 212 218 221 251 276 279 270 268 273 265 264 284 321 360 12 2 295 236 227 223 226 225 224 221 214 212 212 214 218 222 224 227 230 232 234 236 238 238
213 223 225 220 210 213 223 218 208 197 185 191 194 199 230 242 231 210 212 241 247 256 236 205 183 202 211 239 267 267 258 258 266 265 262 271 289 330 349 304 281 267 251 231 229 229 230 230 223 215 213 214 216 218 221 225 229 231 233 235 238 239
215 223 229 233 226 229 235 218 201 203 197 192 191 208 231 248 255 260 264 256 265 281 265 227 166 191 210 232 249 247 241 241 245 246 246 247 249 256 247 243 244 249 256 251 231 222 226 225 216 210 210 214 214 215 218 223 227 229 232 235 239 241
214 218 228 233 230 237 240 219 203 219 220 204 201 218 232 266 290 278 271 274 286 281 273 256 197 188 208 234 245 246 240 233 228 223 219 215 212 221 227 225 226 229 232 242 229 182 174 175 181 187 193 202 208 213 217 221 226 228 233 236 239 242
214 213 221 228 228 233 237 227 213 230 243 239 234 229 238 321 268 267 278 289 283 273 269 263 236 201 213 232 243 248 241 229 221 211 202 200 202 207 208 207 206 215 217 218 212 155 127 133 154 169 176 189 200 210 216 221 226 228 233 237 239 243
212 214 218 220 219 223 234 238 231 243 257 263 257 240 71 265 258 266 277 274 266 268 269 272 278 269 250 252 251 244 236 231 225 212 199 193 198 202 198 193 189 199 205 206 207 163 124 117 138 160 170 183 197 210 217 220 225 228 232 237 239 244
204 206 209 207 201 202 212 226 232 239 243 259 264 269 253 257 261 270 272 265 262 265 268 274 286 287 279 275 268 255 242 233 230 224 206 189 195 203 195 182 176 183 188 191 198 179 145 120 129 149 162 173 184 202 211 216 222 226 230 234 237 240
195 196 195 187 178 186 202 216 220 211 226 256 274 322 267 260 265 272 271 265 261 262 267 276 280 278 276 273 274 274 262 239 227 230 221 201 203 205 193 174 162 168 174 180 184 174 152 130 129 141 154 165 173 187 195 206 214 218 225 230 231 235
182 182 175 173 183 193 202 206 152 139 215 259 290 299 272 270 274 269 262 259 260 261 265 272 269 268 273 272 270 270 267 253 229 225 226 217 211 204 191 169 159 165 169 176 176 169 158 146 142 143 151 162 171 180 187 201 207 208 217 223 224 229
173 170 166 172 180 179 171 136 104 113 160 230 22 299 281 280 279 265 258 253 258 261 259 263 263 262 266 266 262 258 261 259 239 226 223 224 227 212 189 174 172 170 170 175 174 172 173 166 159 156 158 166 171 180 191 204 206 204 211 216 221 225
166 161 160 162 153 145 130 104 95 94 87 77 73 12 316 294 276 264 263 256 256 259 252 252 260 262 258 255 256 253 254 255 248 237 224 225 238 231 207 192 187 184 177 174 176 181 188 189 184 179 179 183 184 193 203 206 203 204 209 212 219 224
164 158 154 150 144 141 126 105 95 88 78 67 62 49 32 18 318 270 268 261 257 259 253 248 253 256 255 256 257 252 249 248 247 242 226 220 228 233 235 216 194 197 193 176 178 194 203 214 215 212 215 222 226 227 228 225 220 218 219 219 223 231
165 163 160 159 159 150 130 109 98 90 81 68 59 50 40 36 30 1 295 272 263 263 264 259 254 252 251 253 255 250 243 241 241 240 231 225 225 225 232 227 200 198 208 196 196 208 215 233 243 245 247 246 246 248 248 248 250 244 236 230 233 244
163 164 164 165 163 149 130 117 105 94 85 73 62 52 41 35 30 25 14 325 282 268 265 263 259 255 252 249 248 245 238 235 237 239 239 237 237 232 226 227 213 203 214 220 223 226 227 243 252 253 253 253 251 249 246 246 250 251 247 236 232 240
159 160 163 161 155 145 134 125 112 99 88 76 63 52 41 34 29 24 23 11 334 281 261 259 258 251 246 245 243 241 237 234 233 236 241 240 239 238 230 228 222 213 219 222 223 229 234 243 250 254 256 256 256 251 246 245 245 248 251 239 229 238
155 157 161 157 150 149 144 133 118 103 89 76 65 53 41 31 25 22 21 18 8 337 276 257 251 245 241 241 240 238 235 234 233 232 235 236 234 235 233 234 231 224 224 223 224 228 236 247 250 252 253 249 249 248 244 243 240 240 249 245 235 243
156 162 161 160 158 158 153 143 126 106 89 72 61 50 39 28 21 20 19 16 13 3 330 275 253 245 241 241 240 239 236 234 234 233 233 235 236 235 234 235 234 229 226 226 231 235 242 250 253 255 256 248 242 241 238 236 233 231 239 245 244 246
160 170 166 168 170 168 166 159 146 127 93 47 47 40 28 18 16 18 18 17 14 8 356 325 277 254 245 242 241 239 238 236 234 234 235 235 235 233 233 233 234 233 230 230 232 234 240 249 257 262 258 250 243 238 236 232 228 227 232 240 249 252
167 178 177 178 179 178 177 172 167 174 284 355 3 13 13 7 8 12 15 16 14 10 1 348 321 279 254 245 241 240 240 238 237 237 237 237 238 237 236 237 239 236 231 231 232 233 240 249 258 260 251 245 241 235 235 234 225 222 229 238 248 252
179 188 187 186 187 189 189 187 192 218 298 339 340 344 356 0 1 5 9 10 9 8 3 355 341 312 285 262 248 242 241 241 241 242 241 241 242 243 243 244 247 245 236 231 233 237 246 253 259 256 246 239 235 230 232 234 224 217 228 241 247 249
192 195 195 193 194 199 200 202 214 240 287 321 332 334 340 348 352 353 357 359 358 360 360 356 348 333 314 290 266 251 245 244 244 246 247 247 247 248 250 249 252 257 254 247 246 248 253 258 259 254 246 239 235 230 228 233 236 230 230 240 246 249
201 198 200 200 200 207 209 212 225 246 273 299 321 331 333 334 338 340 344 347 347 349 351 353 349 340 330 306 278 258 248 245 244 245 247 247 248 248 250 251 252 256 258 255 254 253 254 257 254 250 246 241 235 230 226 233 243 236 228 238 245 250
209 202 202 204 205 209 214 219 227 245 270 296 317 324 323 323 326 328 334 338 339 338 339 343 346 341 331 315 287 262 247 243 242 241 242 244 243 241 243 247 248 251 252 252 251 245 245 249 248 242 236 232 227 226 228 231 238 238 237 245 247 250
215 205 203 206 207 210 217 223 227 244 272 297 311 316 318 319 319 320 322 326 328 328 328 332 337 337 327 316 296 272 251 242 238 232 231 234 231 227 228 230 233 238 241 244 243 237 236 240 238 229 220 224 230 233 235 235 239 245 247 247 245 243
217 210 204 205 207 212 220 225 231 248 273 294 303 309 316 318 318 319 317 318 317 316 319 327 333 330 323 316 300 282 264 245 233 220 215 220 217 211 210 209 210 215 221 227 231 229 229 230 231 229 227 233 237 235 242 246 243 238 235 243 247 238
213 210 206 206 209 214 222 229 237 254 273 289 299 305 310 313 316 317 316 316 312 305 306 320 330 327 320 313 302 289 276 256 230 213 204 197 191 188 187 185 182 181 180 188 198 204 208 212 219 224 225 226 224 218 227 239 238 228 224 238 250 246
206 202 199 202 210 217 224 233 242 257 274 287 296 301 304 307 310 311 312 313 309 300 294 300 313 317 315 310 301 291 271 250 216 198 188 174 170 169 168 169 168 162 155 154 158 162 168 175 180 184 184 189 205 211 215 225 230 226 225 233 244 250
215 206 195 193 205 217 225 233 244 255 269 282 291 295 298 301 303 303 305 306 303 298 291 291 298 301 304 307 296 283 254 231 208 187 178 169 166 163 162 164 163 159 153 150 151 153 156 159 156 153 158 167 181 198 206 212 214 211 218 223 225 231
232 221 210 197 204 218 225 232 241 251 263 276 283 288 293 296 297 297 297 297 298 298 294 292 292 286 288 297 279 255 223 209 198 183 173 167 164 162 160 160 157 155 151 148 148 149 150 151 150 151 158 165 169 177 185 189 189 188 195 203 203 207
216 217 218 208 210 221 225 230 237 247 259 271 277 282 286 290 292 293 292 292 296 298 295 291 283 272 275 278 243 218 200 195 186 172 161 155 154 155 155 155 152 149 147 145 146 146 146 147 148 151 154 156 158 163 168 172 176 178 182 187 187 187
194 208 213 209 214 222 224 227 234 245 257 265 269 273 277 283 289 290 292 295 296 295 290 289 280 271 268 243 205 185 179 178 168 156 144 140 139 138 139 140 139 136 134 135 138 139 140 140 141 143 146 147 147 149 150 153 154 154 153 155 154 150
183 198 203 207 217 225 228 231 235 242 250 256 261 267 272 280 285 288 294 297 292 279 294 303 288 273 255 210 186 171 167 162 153 143 134 131 128 125 125 125 123 121 119 120 121 123 123 125 125 127 129 129 125 124 124 124 124 124 123 122 122 120
Height
3147 3147 3147 3148 3148 3148 3147 3148 3151 3153 3154 3155 3156 3158 3158 3159 3161 3162 3164 3165 3165 3166 3166 3166 3167 3167 3167 3167 3167 3167 3167 3168 3168 3168 3169 3170 3170 3171 3171 3172 3173 3174 3175 3176 3177 3178 3180 3181 3183 3184 3186 3187 3188 3189 3190 3190 3191 3192 3193 3194 3194 3195
3147 3146 3146 3147 3146 3147 3147 3148 3150 3151 3153 3154 3156 3157 3157 3158 3160 3162 3163 3164 3165 3165 3166 3166 3166 3167 3167 3167 3167 3167 3167 3167 3168 3168 3168 3169 3169 3170 3171 3171 3172 3173 3174 3174 3175 3176 3178 3179 3181 3183 3184 3186 3187 3188 3188 3189 3190 3191 3192 3192 3193 3194
3147 3146 3147 3146 3145 3146 3148 3149 3150 3151 3152 3153 3155 3156 3156 3157 3160 3162 3163 3164 3164 3165 3165 3166 3166 3166 3166 3166 3166 3166 3166 3167 3167 3167 3167 3168 3168 3169 3170 3170 3171 3172 3172 3173 3173 3175 3176 3177 3180 3181 3183 3184 3185 3186 3186 3187 3188 3189 3190 3190 3191 3192
3147 3147 3147 3146 3145 3146 3150 3151 3151 3151 3153 3155 3156 3156 3155 3156 3159 3160 3161 3163 3164 3164 3165 3165 3166 3166 3166 3166 3166 3166 3166 3166 3166 3166 3166 3167 3168 3168 3169 3169 3170 3170 3171 3172 3172 3173 3174 3176 3178 3180 3181 3182 3183 3184 3185 3186 3186 3187 3188 3188 3189 3191
3147 3146 3146 3145 3147 3149 3150 3151 3151 3152 3155 3156 3158 3157 3156 3157 3158 3158 3160 3162 3163 3163 3164 3164 3165 3165 3165 3165 3165 3166 3166 3165 3165 3166 3166 3166 3167 3168 3168 3169 3169 3170 3170 3171 3171 3172 3173 3174 3176 3177 3178 3180 3181 3182 3183 3184 3185 3186 3186 3187 3187 3189
3147 3145 3143 3146 3150 3151 3151 3152 3154 3156 3157 3158 3159 3159 3158 3157 3156 3158 3161 3162 3162 3162 3162 3162 3163 3163 3163 3164 3165 3165 3165 3165 3165 3166 3166 3167 3167 3168 3168 3169 3169 3169 3169 3170 3170 3171 3172 3173 3174 3176 3177 3178 3180 3181 3182 3183 3184 3184 3185 3185 3185 3186
3145 3143 3145 3150 3154 3153 3153 3155 3157 3157 3158 3158 3159 3159 3159 3158 3159 3161 3163 3163 3162 3162 3162 3160 3160 3161 3162 3163 3163 3163 3163 3164 3164 3165 3166 3166 3167 3168 3168 3168 3168 3169 3169 3169 3169 3170 3171 3172 3173 3175 3176 3177 3178 3179 3180 3181 3182 3183 3183 3183 3184 3185
3144 3146 3149 3153 3154 3154 3155 3157 3157 3156 3156 3157 3157 3158 3158 3160 3162 3163 3162 3162 3163 3163 3162 3160 3158 3160 3161 3161 3161 3161 3161 3162 3162 3163 3164 3165 3166 3166 3167 3167 3168 3168 3168 3168 3168 3169 3170 3171 3172 3174 3175 3176 3177 3177 3178 3179 3180 3181 3182 3182 3182 3183
3146 3149 3151 3152 3154 3155 3156 3157 3157 3156 3156 3156 3156 3156 3158 3162 3162 3160 3159 3161 3162 3162 3161 3160 3157 3158 3158 3158 3159 3159 3160 3160 3160 3161 3162 3163 3164 3164 3165 3166 3167 3167 3167 3167 3168 3168 3169 3170 3171 3172 3173 3175 3175 3176 3177 3178 3179 3180 3180 3181 3181 3181
3149 3150 3151 3152 3153 3154 3155 3156 3156 3156 3156 3157 3156 3156 3160 3161 3159 3158 3159 3160 3160 3159 3158 3158 3156 3156 3156 3156 3157 3157 3157 3157 3157 3158 3160 3161 3161 3162 3163 3164 3166 3166 3167 3167 3167 3168 3168 3169 3170 3171 3172 3173 3174 3175 3176 3177 3178 3179 3179 3179 3179 3180
3150 3150 3151 3152 3153 3154 3155 3155 3155 3156 3157 3158 3157 3158 3160 3158 3157 3157 3158 3158 3157 3155 3155 3156 3155 3154 3155 3156 3156 3155 3154 3155 3156 3157 3158 3158 3159 3160 3161 3162 3164 3165 3166 3166 3167 3167 3168 3169 3170 3171 3171 3173 3174 3175 3175 3176 3177 3177 3178 3178 3178 3178
3149 3150 3150 3151 3152 3153 3154 3154 3155 3156 3157 3157 3157 3159 3158 3156 3155 3157 3157 3156 3155 3154 3154 3155 3155 3155 3155 3155 3155 3154 3152 3153 3155 3155 3155 3156 3157 3158 3159 3160 3162 3163 3164 3165 3166 3167 3167 3168 3169 3170 3171 3172 3173 3174 3174 3175 3176 3176 3176 3176 3176 3176
3150 3150 3150 3150 3151 3151 3153 3154 3155 3156 3156 3155 3156 3157 3156 3154 3155 3156 3156 3155 3154 3153 3154 3155 3155 3154 3153 3153 3153 3153 3153 3154 3155 3154 3153 3154 3155 3156 3157 3158 3159 3162 3163 3164 3165 3166 3167 3168 3169 3170 3171 3172 3172 3173 3173 3174 3174 3175 3175 3175 3174 3174
3149 3150 3150 3150 3150 3150 3151 3152 3155 3156 3155 3153 3153 3154 3153 3153 3154 3155 3154 3153 3152 3152 3154 3154 3153 3153 3152 3152 3151 3152 3153 3154 3153 3152 3153 3153 3154 3154 3154 3155 3157 3160 3162 3163 3164 3165 3166 3167 3168 3169 3170 3171 3172 3172 3173 3173 3173 3173 3174 3173 3172 3172
3148 3149 3149 3149 3149 3150 3150 3152 3154 3155 3153 3152 3153 3153 3152 3152 3153 3153 3152 3152 3151 3151 3153 3153 3152 3152 3152 3152 3151 3151 3151 3152 3152 3152 3152 3152 3152 3152 3152 3154 3156 3158 3160 3162 3163 3164 3165 3167 3168 3169 3169 3170 3171 3171 3172 3172 3172 3172 3172 3172 3171 3171
3147 3148 3149 3149 3149 3149 3150 3152 3153 3153 3152 3151 3152 3153 3152 3152 3152 3152 3151 3151 3150 3150 3152 3152 3151 3152 3152 3152 3152 3151 3151 3151 3150 3151 3151 3151 3152 3152 3153 3154 3156 3157 3158 3160 3162 3163 3164 3166 3167 3168 3169 3169 3170 3171 3171 3171 3171 3171 3171 3170 3170 3169
3146 3147 3148 3149 3149 3149 3151 3152 3152 3152 3151 3151 3152 3152 3151 3151 3151 3151 3150 3150 3149 3149 3151 3151 3151 3151 3152 3152 3151 3151 3151 3150 3150 3150 3150 3151 3152 3153 3153 3154 3155 3157 3158 3159 3160 3162 3164 3165 3166 3167 3168 3168 3169 3169 3169 3169 3169 3169 3169 3168 3168 3169
3145 3146 3147 3148 3149 3149 3150 3151 3152 3152 3151 3151 3151 3150 3150 3150 3150 3150 3149 3148 3148 3148 3149 3150 3150 3151 3151 3151 3151 3151 3150 3150 3150 3150 3151 3151 3152 3153 3154 3155 3156 3157 3158 3158 3159 3161 3162 3164 3165 3166 3166 3167 3167 3167 3168 3168 3168 3168 3167 3167 3169 3170
3144 3146 3146 3147 3148 3149 3150 3151 3151 3151 3151 3151 3150 3150 3149 3148 3148 3148 3148 3147 3147 3147 3147 3148 3149 3150 3150 3151 3150 3150 3150 3150 3150 3150 3151 3152 3153 3154 3155 3155 3156 3157 3158 3158 3159 3160 3161 3162 3163 3164 3165 3165 3165 3166 3166 3166 3167 3166 3166 3167 3169 3170
3143 3145 3146 3147 3147 3148 3149 3150 3150 3150 3150 3150 3150 3150 3149 3148 3148 3148 3147 3147 3146 3146 3147 3147 3148 3149 3150 3150 3150 3150 3149 3149 3150 3150 3151 3152 3152 3153 3154 3155 3155 3156 3157 3158 3159 3160 3161 3161 3162 3163 3163 3164 3164 3165 3165 3166 3166 3165 3165 3167 3168 3169
3142 3143 3144 3145 3146 3147 3148 3149 3149 3149 3150 3150 3150 3150 3149 3149 3148 3148 3148 3147 3147 3147 3146 3147 3147 3148 3148 3149 3149 3149 3149 3149 3149 3149 3149 3150 3151 3152 3152 3153 3153 3154 3156 3157 3158 3159 3160 3160 3161 3162 3162 3163 3163 3164 3164 3164 3165 3165 3165 3166 3167 3168
3141 3142 3143 3144 3146 3147 3148 3148 3148 3149 3150 3150 3150 3150 3150 3149 3149 3148 3148 3148 3147 3147 3147 3147 3147 3147 3148 3148 3148 3148 3148 3148 3148 3149 3149 3149 3150 3150 3151 3152 3152 3153 3155 3156 3157 3158 3159 3159 3160 3160 3161 3161 3162 3162 3162 3163 3163 3164 3164 3165 3166 3167
3140 3141 3142 3144 3146 3147 3147 3148 3148 3149 3150 3150 3150 3150 3150 3150 3149 3149 3148 3148 3148 3147 3147 3146 3146 3147 3147 3147 3147 3147 3148 3148 3148 3148 3148 3148 3149 3150 3150 3151 3151 3152 3154 3155 3156 3157 3158 3158 3158 3159 3160 3160 3160 3161 3161 3161 3161 3162 3162 3163 3164 3165
3139 3141 3142 3144 3145 3146 3147 3148 3148 3149 3149 3150 3150 3150 3150 3150 3150 3149 3149 3148 3148 3148 3147 3147 3146 3146 3146 3146 3146 3147 3147 3147 3147 3147 3148 3148 3149 3149 3150 3150 3150 3151 3153 3154 3155 3156 3156 3157 3157 3158 3159 3159 3159 3159 3159 3159 3159 3159 3161 3162 3163 3163
3138 3140 3142 3143 3145 3146 3146 3147 3148 3148 3149 3149 3150 3150 3150 3150 3150 3150 3149 3149 3148 3148 3147 3147 3146 3145 3145 3145 3145 3146 3146 3146 3147 3147 3147 3148 3148 3149 3149 3150 3149 3150 3153 3154 3155 3156 3156 3156 3156 3157 3157 3158 3158 3158 3158 3157 3158 3159 3159 3161 3161 3162
3138 3139 3141 3143 3144 3145 3146 3147 3147 3148 3148 3149 3149 3150 3150 3150 3150 3150 3150 3149 3149 3148 3147 3147 3146 3145 3145 3144 3144 3144 3145 3145 3146 3146 3147 3147 3148 3148 3148 3149 3148 3149 3152 3153 3154 3155 3155 3155 3155 3155 3156 3156 3156 3157 3157 3156 3157 3159 3160 3160 3161 3161
3137 3138 3140 3142 3143 3144 3145 3146 3146 3147 3148 3148 3149 3149 3150 3150 3150 3149 3149 3149 3149 3148 3147 3147 3146 3145 3145 3144 3144 3144 3144 3144 3145 3145 3146 3146 3147 3147 3147 3147 3148 3148 3150 3151 3152 3153 3153 3153 3154 3154 3155 3155 3155 3156 3156 3156 3158 3159 3159 3160 3160 3161
3136 3138 3140 3141 3143 3143 3144 3145 3145 3146 3147 3148 3148 3149 3149 3149 3149 3149 3149 3149 3148 3148 3147 3147 3146 3145 3145 3144 3144 3144 3143 3144 3144 3144 3145 3145 3145 3146 3146 3146 3147 3147 3148 3148 3149 3151 3152 3152 3153 3153 3153 3154 3154 3155 3156 3156 3158 3159 3159 3159 3159 3160
3135 3137 3139 3140 3142 3142 3143 3144 3145 3145 3146 3147 3148 3148 3149 3149 3149 3148 3148 3148 3148 3147 3147 3146 3145 3145 3144 3144 3143 3143 3143 3143 3143 3144 3144 3145 3145 3144 3145 3145 3146 3146 3146 3147 3147 3148 3150 3150 3151 3152 3152 3153 3154 3155 3155 3156 3157 3158 3158 3158 3159 3159
3134 3136 3138 3139 3141 3141 3142 3143 3145 3145 3146 3147 3147 3147 3147 3147 3148 3148 3147 3147 3147 3146 3146 3146 3145 3144 3144 3143 3143 3142 3142 3142 3143 3143 3144 3144 3144 3144 3144 3144 3145 3145 3146 3146 3146 3147 3148 3149 3150 3151 3152 3153 3153 3154 3155 3155 3156 3157 3157 3157 3158 3159
3132 3135 3137 3139 3140 3141 3142 3144 3145 3146 3146 3146 3146 3146 3146 3146 3146 3146 3146 3146 3146 3145 3145 3145 3144 3144 3143 3142 3142 3141 3141 3141 3142 3142 3143 3143 3143 3144 3144 3144 3144 3145 3145 3146 3146 3146 3147 3148 3149 3150 3151 3152 3152 3153 3154 3154 3155 3156 3157 3157 3157 3158
3129 3132 3135 3138 3140 3142 3143 3144 3145 3145 3146 3146 3146 3145 3145 3145 3145 3144 3144 3144 3144 3144 3144 3143 3143 3143 3142 3141 3141 3141 3140 3141 3141 3142 3142 3143 3143 3144 3144 3144 3144 3145 3145 3145 3146 3146 3147 3147 3148 3149 3150 3151 3151 3152 3153 3153 3154 3155 3156 3157 3157 3158
3133 3136 3137 3138 3140 3142 3142 3143 3144 3144 3145 3145 3144 3144 3143 3143 3143 3143 3143 3142 3142 3142 3142 3142 3142 3142 3141 3140 3140 3140 3140 3140 3141 3141 3142 3143 3143 3144 3144 3144 3145 3145 3145 3145 3145 3146 3146 3147 3148 3149 3150 3150 3151 3152 3152 3153 3154 3155 3156 3156 3157 3157
3137 3140 3139 3138 3139 3141 3142 3142 3143 3143 3144 3144 3143 3142 3142 3141 3141 3141 3141 3140 3140 3140 3139 3139 3140 3141 3141 3140 3140 3140 3140 3140 3140 3141 3141 3142 3143 3143 3144 3144 3144 3145 3145 3145 3145 3146 3146 3147 3148 3149 3150 3150 3151 3152 3152 3153 3154 3155 3155 3156 3156 3157
3135 3137 3137 3138 3139 3141 3141 3141 3141 3142 3143 3143 3142 3141 3140 3140 3140 3140 3139 3139 3138 3138 3138 3138 3139 3139 3139 3139 3139 3139 3139 3140 3140 3141 3141 3142 3142 3143 3143 3144 3144 3144 3145 3145 3145 3146 3146 3147 3147 3148 3149 3150 3151 3152 3152 3153 3154 3154 3155 3155 3156 3156
3131 3133 3135 3137 3139 3139 3139 3140 3140 3141 3141 3142 3141 3140 3139 3139 3139 3138 3138 3137 3137 3137 3137 3137 3138 3139 3139 3138 3139 3139 3139 3139 3140 3140 3141 3141 3142 3142 3143 3143 3144 3144 3144 3145 3145 3146 3146 3147 3148 3148 3149 3150 3151 3151 3152 3153 3153 3154 3154 3155 3155 3156
3130 3132 3134 3136 3137 3138 3138 3139 3139 3139 3140 3140 3139 3139 3138 3138 3137 3137 3137 3136 3136 3136 3136 3137 3138 3138 3138 3138 3138 3138 3139 3139 3140 3140 3140 3141 3141 3142 3142 3143 3143 3144 3144 3145 3145 3146 3146 3147 3148 3149 3150 3150 3151 3152 3152 3153 3153 3154 3154 3154 3155 3155